Weather History for Evanston, WY

Change the Weather History Date:

Saturday, March 16, 2013

  Actual Average Record
Temperature  
Mean Temperature 39 °F 31 °F  
Max Temperature 48 °F 40 °F 57 °F (2007)
Min Temperature 30 °F 22 °F 10 °F (2002)
Degree Days  
Heating Degree Days 26 34  
Month to date heating degree days 499 584  
Since 1 July heating degree days 6094 6592  
Cooling Degree Days 0 0  
Month to date cooling degree days 0 0  
Year to date cooling degree days 0 0  
Moisture  
Dew Point 19 °F    
Average Humidity 49    
Maximum Humidity 72    
Minimum Humidity 26    
Precipitation  
Precipitation 0.00 in 0.02 in 0.10 in (2011)
Month to date precipitation 0.15 0.33  
Year to date precipitation 0.62 1.48  
Sea Level Pressure  
Sea Level Pressure 29.88 in    
Wind  
Wind Speed 11 mph (WSW)    
Max Wind Speed 24 mph    
Max Gust Speed 32 mph    
Visibility 10 miles    
Events      
T = Trace of Precipitation, MM = Missing Value Source: NWS Daily Summary

Daily Weather History Graph

Daily Weather History Graph

Search for Another Location

Airport:

Trip Planner

Search our weather history database for the weather conditions in past years. The results will help you decide how hot, cold, wet, or windy it might be!

Date:

Astronomy

Mar. 16, 2013 Rise Set
Actual Time 7:33 AM MDT 7:32 PM MDT
Civil Twilight 7:06 AM MDT 7:59 PM MDT
Nautical Twilight 6:34 AM MDT 8:31 PM MDT
Astronomical Twilight 6:01 AM MDT 9:04 PM MDT
Moon 10:02 AM MDT (3/16) No Moon Set
Length of Visible Light 12h 53m
Length of Day
11h 58m
Waxing Crescent, 23% of the Moon is Illuminated
Mar 16
Waxing Crescent
Mar 19
First Quarter
Mar 27
Full
Apr 2
Last Quarter
Apr 10
New

Hourly Weather History & Observations

Time (MDT) Temp. Windchill Dew Point Humidity Pressure Visibility Wind Dir Wind Speed Gust Speed Precip Events Conditions
12:53 AM 39.9 °F 35.8 °F 23.0 °F 51% 29.93 in 10.0 mi NNW 5.8 mph - N/A   Clear
1:53 AM 39.9 °F 37.8 °F 23.0 °F 51% 29.90 in 10.0 mi NE 3.5 mph - N/A   Clear
2:53 AM 37.9 °F - 23.0 °F 55% 29.89 in 10.0 mi Calm Calm - N/A   Clear
3:53 AM 35.1 °F 31.0 °F 23.0 °F 61% 29.89 in 10.0 mi SW 4.6 mph - N/A   Clear
4:53 AM 35.1 °F 32.2 °F 23.0 °F 61% 29.87 in 10.0 mi SW 3.5 mph - N/A   Clear
5:53 AM 32.0 °F 25.6 °F 23.0 °F 69% 29.91 in 10.0 mi SW 6.9 mph - N/A   Mostly Cloudy
6:53 AM 30.0 °F 22.4 °F 23.0 °F 75% 29.93 in 10.0 mi WSW 8.1 mph - N/A   Scattered Clouds
7:53 AM 35.1 °F 27.4 °F 21.9 °F 59% 29.91 in 10.0 mi West 10.4 mph - N/A   Clear
8:53 AM 36.0 °F 30.3 °F 23.0 °F 59% 29.93 in 10.0 mi WSW 6.9 mph - N/A   Clear
9:53 AM 41.0 °F 35.2 °F 21.9 °F 47% 29.92 in 10.0 mi West 9.2 mph - N/A   Clear
10:53 AM 42.1 °F 33.9 °F 19.9 °F 41% 29.93 in 10.0 mi WSW 17.3 mph - N/A   Clear
11:53 AM 45.0 °F 38.5 °F 18.0 °F 34% 29.93 in 10.0 mi WSW 13.8 mph 19.6 mph N/A   Clear
12:53 PM 46.0 °F 38.8 °F 15.1 °F 29% 29.90 in 10.0 mi West 18.4 mph 28.8 mph N/A   Clear
1:53 PM 48.0 °F - 15.1 °F 27% 29.88 in 10.0 mi West 18.4 mph 26.5 mph N/A   Clear
2:53 PM 46.9 °F - 14.0 °F 27% 29.88 in 10.0 mi West 19.6 mph - N/A   Clear
3:53 PM 46.9 °F - 16.0 °F 29% 29.87 in 10.0 mi WSW 17.3 mph - N/A   Clear
4:53 PM 46.9 °F - 16.0 °F 29% 29.86 in 10.0 mi West 16.1 mph 24.2 mph N/A   Clear
5:53 PM 45.0 °F 37.6 °F 14.0 °F 29% 29.88 in 10.0 mi WSW 17.3 mph 21.9 mph N/A   Clear
6:53 PM 41.0 °F 33.9 °F 18.0 °F 40% 29.89 in 10.0 mi West 12.7 mph - N/A   Clear
7:53 PM 37.0 °F 29.8 °F 19.9 °F 50% 29.89 in 10.0 mi WSW 10.4 mph - N/A   Clear
8:53 PM 36.0 °F 29.6 °F 17.1 °F 46% 29.86 in 10.0 mi SW 8.1 mph - N/A   Clear
9:53 PM 35.1 °F 26.9 °F 17.1 °F 48% 29.82 in 10.0 mi SW 11.5 mph - N/A   Clear
10:53 PM 35.1 °F 27.9 °F 17.1 °F 48% 29.79 in 10.0 mi SW 9.2 mph - N/A   Scattered Clouds
11:53 PM 34.0 °F 26.0 °F 16.0 °F 48% 29.74 in 10.0 mi SW 10.4 mph - N/A   Clear